Weather reports worldwide

Advertisment
Shawbury, United Kingdom (3414): temperature & dewpoint: 27.06.2020 20:00:00 - 03.07.2020 20:00:00 (BST)Shawbury, United Kingdom (3414): temperature -20cm & temperature -100cm: 27.06.2020 20:00:00 - 03.07.2020 20:00:00 (BST)Shawbury, United Kingdom (3414): wind speed & gusts: 27.06.2020 20:00:00 - 03.07.2020 20:00:00 (BST)Shawbury, United Kingdom (3414): wind direction: 27.06.2020 20:00:00 - 03.07.2020 20:00:00 (BST)Shawbury, United Kingdom (3414): reduced air pressure: 27.06.2020 20:00:00 - 03.07.2020 20:00:00 (BST)Shawbury, United Kingdom (3414): visibility: 27.06.2020 20:00:00 - 03.07.2020 20:00:00 (BST)Shawbury, United Kingdom (3414): sunshine duration: 27.06.2020 20:00:00 - 03.07.2020 20:00:00 (BST)Shawbury, United Kingdom (3414): precipitation: 27.06.2020 20:00:00 - 03.07.2020 20:00:00 (BST)
Date & Time tt [°C] td [°C] tt -20cm [°C] tt -100cm [°C] ff [km/h] ff [kn] fx [km/h] fx [kn] dd ppp [hPa] vv [km] sd [min] rr [mm]
03.07.2020 20:00:00 - - - - - - - - - - - - -
03.07.2020 19:00:00 16,8 12,7 - - 37 20 61 33 SW 1008,9 10 0 0,0
03.07.2020 18:00:00 16,9 12,5 - - 29 16 54 29 SW 1009,5 35 0 0,0
03.07.2020 17:00:00 16,7 12,7 - - 39 21 59 32 SW 1010,2 10 0 0,0
03.07.2020 16:00:00 16,7 12,4 - - 35 19 61 33 SW 1010,5 45 0 0,0
03.07.2020 15:00:00 16,6 12,0 - - 46 25 65 35 SW 1010,7 45 0 0,0
03.07.2020 14:00:00 16,9 12,2 - - 39 21 57 31 SW 1010,7 10 0 0,0
03.07.2020 13:00:00 16,4 12,2 - - 31 17 48 26 SW 1011,6 10 0 0,0
03.07.2020 12:00:00 15,4 11,5 - - 24 13 50 27 SW 1012,1 10 0 0,0
03.07.2020 11:00:00 14,8 10,9 - - 31 17 48 26 SW 1012,1 10 0 0,0
03.07.2020 10:00:00 14,5 10,4 16,0 15,0 28 15 - - SW 1012,4 10 0 0,0
03.07.2020 09:00:00 14,1 10,1 - - 26 14 - - SW 1012,6 10 0 0,0
03.07.2020 08:00:00 13,1 10,5 - - 21 11 - - SSW 1012,7 30 0 0,4
03.07.2020 07:00:00 12,6 10,1 - - 18 10 - - S 1013,2 10 0 0,0
03.07.2020 06:00:00 12,6 10,4 - - 21 11 - - SSW 1013,3 29 0 0,4
03.07.2020 05:00:00 11,9 10,4 - - 9 5 - - S 1013,7 9 0 0,6
03.07.2020 04:00:00 12,1 10,2 - - 8 4 - - SSW 1014,1 18 0 0,0
03.07.2020 03:00:00 12,0 9,7 - - 11 6 - - SSW 1014,4 10 0 0,0
03.07.2020 02:00:00 11,5 9,6 - - 11 6 - - SW 1014,6 30 0 0,0
03.07.2020 01:00:00 10,8 8,9 - - 11 6 - - WSW 1015,0 30 - 0,0
03.07.2020 00:00:00 11,4 9,3 - - 13 7 - - SW 1015,3 30 0 0,0
02.07.2020 23:00:00 11,7 9,1 - - 13 7 - - WSW 1015,3 30 0 0,0
02.07.2020 22:00:00 13,3 7,9 - - 16 9 - - W 1015,1 40 0 0,0
02.07.2020 21:00:00 14,1 9,3 - - 13 7 - - WSW 1014,5 10 18 0,0
02.07.2020 20:00:00 16,8 9,0 - - 18 10 - - WSW 1013,8 40 48 0,0
02.07.2020 19:00:00 17,3 12,3 - - 8 4 - - N 1013,4 29 12 0,0
02.07.2020 18:00:00 16,0 12,0 - - 5 3 - - N 1012,9 40 0 0,2
02.07.2020 17:00:00 16,5 12,0 - - 9 5 - - NNW 1012,6 10 0 0,2
02.07.2020 16:00:00 17,7 11,3 - - 15 8 - - NNW 1011,9 10 36 0,0
02.07.2020 15:00:00 18,6 11,5 - - 18 10 - - NNW 1011,6 10 18 0,0
02.07.2020 14:00:00 17,9 12,4 - - 16 9 - - WNW 1011,3 10 24 0,0
02.07.2020 13:00:00 15,4 12,3 - - 13 7 - - NW 1011,0 10 0 0,0
02.07.2020 12:00:00 15,0 13,1 - - 13 7 - - NNW 1010,6 10 0 0,0
02.07.2020 11:00:00 16,1 12,4 - - 16 9 - - NW 1009,8 20 0 0,0
02.07.2020 10:00:00 15,7 12,0 16,0 15,0 13 7 - - WNW 1009,1 10 0 0,0
02.07.2020 09:00:00 15,2 12,3 - - 13 7 - - W 1008,6 10 0 0,0
02.07.2020 08:00:00 14,1 11,9 - - 9 5 - - WSW 1007,9 27 0 0,0
02.07.2020 07:00:00 12,9 11,0 - - 9 5 - - SW 1007,6 28 0 0,0
02.07.2020 06:00:00 12,9 10,9 - - 8 4 - - SSW 1007,2 25 0 0,0
02.07.2020 05:00:00 12,6 10,5 - - 5 3 - - SSW 1006,9 30 0 0,0
02.07.2020 04:00:00 12,9 10,6 - - 5 3 - - SSW 1007,0 30 0 0,0
02.07.2020 03:00:00 12,9 10,6 - - 4 2 - - S 1007,1 30 0 0,0
02.07.2020 02:00:00 12,7 10,5 - - 5 3 - - S 1007,1 30 0 0,0
02.07.2020 01:00:00 13,3 10,6 - - 9 5 - - SSW 1007,0 35 - 0,0
02.07.2020 00:00:00 13,3 10,5 - - 9 5 - - SSW 1007,2 35 0 0,0
01.07.2020 23:00:00 13,6 10,5 - - 11 6 - - WSW 1007,1 35 0 0,0
01.07.2020 22:00:00 13,9 10,7 - - 16 9 - - WSW 1006,8 40 0 0,0
01.07.2020 21:00:00 14,7 11,0 - - 16 9 - - W 1006,2 10 0 0,0
01.07.2020 20:00:00 15,7 11,4 - - 21 11 - - W 1005,7 35 0 0,0
01.07.2020 19:00:00 16,3 11,4 - - 26 14 - - WSW 1005,5 40 0 0,0
01.07.2020 18:00:00 19,1 12,9 - - 26 14 - - W 1004,9 40 18 0,0
01.07.2020 17:00:00 18,6 12,5 - - 18 10 - - W 1004,5 10 12 0,0
01.07.2020 16:00:00 18,6 12,7 - - 22 12 - - W 1004,4 10 18 0,0
01.07.2020 15:00:00 18,4 13,0 - - 16 9 - - WSW 1004,0 10 0 0,0
01.07.2020 14:00:00 18,1 11,6 - - 9 5 - - WSW 1004,0 10 0 0,0
01.07.2020 13:00:00 16,9 11,9 - - 9 5 - - W 1003,8 10 0 0,0
01.07.2020 12:00:00 16,8 12,9 - - 8 4 - - W 1003,5 10 0 0,0
01.07.2020 11:00:00 16,1 12,2 - - 16 9 - - W 1003,2 40 6 0,0
01.07.2020 10:00:00 15,6 12,5 15,9 15,0 15 8 - - WSW 1003,1 10 0 0,0
01.07.2020 09:00:00 15,0 13,1 - - 16 9 - - SW 1002,9 10 0 0,0
01.07.2020 08:00:00 14,1 12,5 - - 15 8 - - SSW 1002,7 30 0 0,0
01.07.2020 07:00:00 13,6 12,7 - - 8 4 - - SSW 1002,5 35 0 0,0
01.07.2020 06:00:00 13,1 12,6 - - 5 3 - - SSW 1002,2 30 0 0,0
01.07.2020 05:00:00 13,0 12,6 - - 8 4 - - S 1002,2 10 0 0,0
01.07.2020 04:00:00 13,0 12,6 - - 5 3 - - SSW 1002,4 22 0 0,6
01.07.2020 03:00:00 13,1 12,5 - - 9 5 - - SW 1002,6 5 0 0,2
01.07.2020 02:00:00 13,6 12,2 - - 9 5 - - SW 1002,8 10 0 0,0
01.07.2020 01:00:00 13,0 12,2 - - 4 2 - - SW 1003,0 30 - 0,0
01.07.2020 00:00:00 13,9 12,6 - - 13 7 - - WSW 1003,0 35 0 0,0
30.06.2020 23:00:00 14,8 12,3 - - 13 7 - - SW 1003,2 35 0 0,0
30.06.2020 22:00:00 15,2 13,6 - - 8 4 - - SSW 1003,0 10 0 0,0
30.06.2020 21:00:00 15,8 14,0 - - 8 4 - - E 1002,8 19 0 0,0
30.06.2020 20:00:00 16,2 13,5 - - 5 3 - - ESE 1003,0 27 0 0,0
30.06.2020 19:00:00 16,1 13,7 - - 8 4 - - SSE 1003,2 22 0 0,0
30.06.2020 18:00:00 15,9 12,8 - - 13 7 - - S 1003,7 28 0 0,0
30.06.2020 17:00:00 16,6 11,9 - - 15 8 - - S 1003,8 10 0 0,0
30.06.2020 16:00:00 17,4 10,5 - - 15 8 - - SSW 1004,1 10 0 0,0
30.06.2020 15:00:00 17,9 9,7 - - 11 6 - - WSW 1004,3 10 0 0,0
30.06.2020 14:00:00 17,1 9,1 - - 18 10 - - SSW 1004,7 10 0 0,0
30.06.2020 13:00:00 16,6 9,6 - - 15 8 - - WSW 1004,8 10 0 0,0
30.06.2020 12:00:00 16,0 10,2 - - 11 6 - - WSW 1005,1 10 0 0,0
30.06.2020 11:00:00 15,0 10,2 - - 8 4 - - WSW 1005,2 10 0 0,0
30.06.2020 10:00:00 14,0 9,9 15,7 15,2 13 7 - - WSW 1005,5 30 0 0,0
30.06.2020 09:00:00 13,7 10,1 - - 16 9 - - SW 1005,6 10 0 0,0
30.06.2020 08:00:00 13,6 9,9 - - 15 8 - - SW 1005,4 10 0 0,0
30.06.2020 07:00:00 12,7 10,3 - - 11 6 - - SSW 1005,4 23 0 0,0
30.06.2020 06:00:00 12,8 9,7 - - 18 10 - - WSW 1005,3 28 0 0,0
30.06.2020 05:00:00 12,6 9,7 - - 21 11 - - WSW 1005,4 30 0 0,0
30.06.2020 04:00:00 12,4 10,0 - - 16 9 - - WSW 1005,7 35 0 0,0
30.06.2020 03:00:00 12,4 10,1 - - 21 11 - - WSW 1005,9 35 0 0,0
30.06.2020 02:00:00 12,5 10,1 - - 28 15 - - WSW 1006,1 35 0 0,0
30.06.2020 01:00:00 12,7 10,3 - - 4 2 - - SW 1006,6 10 - 0,0
30.06.2020 00:00:00 12,1 10,4 - - 24 13 - - WSW 1006,7 30 0 0,0
29.06.2020 23:00:00 12,4 10,5 - - 26 14 - - SW 1007,0 26 0 0,0
29.06.2020 22:00:00 12,3 10,6 - - 26 14 - - SW 1007,0 27 0 0,0
29.06.2020 21:00:00 12,2 10,7 - - 28 15 - - SW 1007,0 10 0 0,0
29.06.2020 20:00:00 12,9 10,4 - - 31 17 48 26 SW 1006,7 10 0 0,0
29.06.2020 19:00:00 12,7 10,5 - - 29 16 46 25 SW 1007,0 12 0 0,0
29.06.2020 18:00:00 13,0 10,3 - - 34 18 50 27 WSW 1006,8 18 0 0,0
29.06.2020 17:00:00 13,2 9,9 - - 29 16 48 26 SW 1006,7 10 0 0,0
29.06.2020 16:00:00 12,7 10,2 - - 35 19 57 31 SW 1006,7 25 0 0,0
29.06.2020 15:00:00 13,2 9,7 - - 41 22 59 32 SW 1006,6 10 0 0,0
29.06.2020 14:00:00 13,9 9,4 - - 44 24 68 37 WSW 1006,3 10 0 0,0
29.06.2020 13:00:00 13,7 9,3 - - 41 22 59 32 WSW 1006,4 10 0 0,0
29.06.2020 12:00:00 13,7 9,2 - - 48 26 65 35 WSW 1005,9 10 0 0,0
29.06.2020 11:00:00 13,3 8,9 - - 42 23 57 31 WSW 1005,8 10 0 0,0
29.06.2020 10:00:00 13,4 8,7 16,0 15,2 35 19 50 27 WSW 1005,8 10 0 0,0
29.06.2020 09:00:00 13,2 8,9 - - 35 19 59 32 WSW 1005,5 10 0 0,0
29.06.2020 08:00:00 12,9 8,6 - - 41 22 61 33 SW 1004,7 30 0 0,0
29.06.2020 07:00:00 12,6 8,7 - - 35 19 54 29 SW 1005,0 10 0 0,0
29.06.2020 06:00:00 11,7 9,4 - - 35 19 57 31 SW 1004,5 22 0 0,0
29.06.2020 05:00:00 12,4 8,7 - - 42 23 55 30 SW 1004,2 10 0 0,0
29.06.2020 04:00:00 12,0 8,8 - - 34 18 52 28 SW 1004,3 35 0 0,0
29.06.2020 03:00:00 12,0 8,5 - - 31 17 54 29 SW 1004,9 10 0 0,0
29.06.2020 02:00:00 12,5 8,1 - - 28 15 59 32 SW 1005,3 35 0 0,0
29.06.2020 01:00:00 13,2 7,6 - - 28 15 - - SW 1005,6 30 - 0,0
29.06.2020 00:00:00 12,9 8,1 - - 22 12 - - SW 1005,6 30 0 0,0
28.06.2020 23:00:00 12,8 8,2 - - 24 13 46 25 SW 1005,7 30 0 0,0
28.06.2020 22:00:00 13,8 7,9 - - 29 16 52 28 SW 1005,8 30 0 0,0
28.06.2020 21:00:00 14,0 7,7 - - 35 19 52 28 SW 1005,9 35 0 0,0
28.06.2020 20:00:00 14,5 7,8 - - 35 19 54 29 WSW 1006,0 35 36 0,0
28.06.2020 19:00:00 15,6 8,0 - - 35 19 55 30 WSW 1006,0 10 18 0,0
28.06.2020 18:00:00 15,6 7,6 - - 41 22 59 32 WSW 1005,9 35 0 0,0
28.06.2020 17:00:00 15,9 7,1 - - 42 23 67 36 WSW 1005,9 35 0 0,0
28.06.2020 16:00:00 16,1 8,0 - - 41 22 65 35 WSW 1006,1 30 0 0,0
28.06.2020 15:00:00 16,1 7,8 - - 42 23 61 33 WSW 1005,9 10 6 0,0
28.06.2020 14:00:00 14,8 9,7 - - 31 17 55 30 SW 1005,9 10 6 0,8
28.06.2020 13:00:00 16,5 10,0 - - 35 19 55 30 WSW 1005,8 35 6 0,0
28.06.2020 12:00:00 14,6 9,2 - - 35 19 61 33 SW 1006,0 30 0 0,4
28.06.2020 11:00:00 15,1 8,5 - - 39 21 63 34 WSW 1005,6 30 0 0,0
28.06.2020 10:00:00 14,3 9,2 16,7 15,2 44 24 63 34 WSW 1005,3 27 0 0,0
28.06.2020 09:00:00 13,2 9,0 - - 39 21 55 30 WSW 1004,7 30 0 0,0
28.06.2020 08:00:00 12,9 9,7 - - 39 21 52 28 SW 1004,1 29 18 0,2
28.06.2020 07:00:00 12,2 9,2 - - 28 15 - - SW 1003,6 28 0 0,0
28.06.2020 06:00:00 11,6 9,2 - - 22 12 - - SW 1003,3 10 0 0,0
28.06.2020 05:00:00 11,4 9,3 - - 22 12 - - SSW 1003,1 35 0 0,0
28.06.2020 04:00:00 11,6 9,5 - - 28 15 - - SSW 1002,8 40 0 0,2
28.06.2020 03:00:00 11,8 9,9 - - 22 12 - - SSW 1002,6 18 0 0,0
28.06.2020 02:00:00 11,1 9,5 - - 21 11 - - SSW 1002,4 27 0 0,0
28.06.2020 01:00:00 11,3 9,4 - - 18 10 - - SSW 1002,5 45 - 0,0
28.06.2020 00:00:00 11,8 10,1 - - 22 12 - - SSW 1002,3 10 0 0,2
27.06.2020 23:00:00 13,1 9,4 - - 22 12 - - SW 1001,9 35 0 0,0
27.06.2020 22:00:00 13,1 9,6 - - 24 13 - - SW 1001,7 30 0 0,0
27.06.2020 21:00:00 13,2 10,2 - - 22 12 46 25 SW 1001,1 10 0 0,0
27.06.2020 20:00:00 15,1 10,1 - - 34 18 52 28 WSW 1000,6 10 0 0,0

tt = temperature
td = dewpoint
tt -20cm = temperature -20cm
tt -100cm = temperature -100cm
ff = wind speed
fx = gusts
dd = wind direction
ppp = reduced air pressure
vv = visibility
sd = sunshine duration
rr = precipitation

Next stations